West Bend, WI

8:32 PM CST on December 10, 2016 (GMT -0600)
West Bend Municipal

Weather History for KETB - February, 2013

Change the Weather History Date:

Thursday, February 14, 2013

  Actual Average Record
Temperature  
Mean Temperature 32 °F -  
Max Temperature 35 °F 30 °F 55 °F (1954)
Min Temperature 26 °F 14 °F -10 °F (1943)
Degree Days  
Heating Degree Days 34    
Moisture  
Dew Point 29 °F    
Average Humidity 87    
Maximum Humidity 100    
Minimum Humidity 75    
Precipitation  
Precipitation 0.03 in - - ()
Sea Level Pressure  
Sea Level Pressure 29.71 in    
Wind  
Wind Speed 7 mph (West)    
Max Wind Speed 20 mph    
Max Gust Speed 28 mph    
Visibility 7 miles    
Events Rain , Snow    
Averages and records for this station are not official NWS values.
T = Trace of Precipitation, MM = Missing Value Source: NWS Daily Summary

Daily Weather History Graph

Daily Weather History Graph

Search for Another Location

Airport or City:

Trip Planner

Search our weather history database for the weather conditions in past years. The results will help you decide how hot, cold, wet, or windy it might be!

Date:

Astronomy

Feb. 14, 2013 Rise Set
Actual Time 6:51 AM CST 5:22 PM CST
Civil Twilight 6:22 AM CST 5:51 PM CST
Nautical Twilight 5:48 AM CST 6:25 PM CST
Astronomical Twilight 5:15 AM CST 6:58 PM CST
Moon 8:43 AM CST (2/14) 10:35 PM CST (2/14)
Length of Visible Light 11h 29m
Length of Day
10h 30m
Waxing Crescent, 22% of the Moon is Illuminated
Feb 14
Waxing Crescent
Feb 17
First Quarter
Feb 25
Full
Mar 4
Last Quarter
Mar 11
New

Hourly Weather History & Observations

Time (CST) Temp. Windchill Dew Point Humidity Pressure Visibility Wind Dir Wind Speed Gust Speed Precip Events Conditions
12:15 AM 33.8 °F - 28.4 °F 81% 29.66 in 10.0 mi Calm Calm - N/A   Overcast
12:35 AM 33.8 °F - 28.4 °F 81% 29.66 in 10.0 mi Calm Calm - N/A   Overcast
12:55 AM 33.8 °F 29.6 °F 28.4 °F 81% 29.65 in 10.0 mi South 4.6 mph - N/A   Overcast
1:15 AM 33.8 °F 29.6 °F 28.4 °F 81% 29.65 in 10.0 mi South 4.6 mph - N/A   Overcast
1:35 AM 33.8 °F 29.6 °F 28.4 °F 81% 29.64 in 10.0 mi South 4.6 mph - N/A   Overcast
1:55 AM 33.8 °F 28.6 °F 30.2 °F 87% 29.64 in 10.0 mi South 5.8 mph - N/A   Light Drizzle
2:15 AM 33.8 °F 30.8 °F 30.2 °F 87% 29.63 in 7.0 mi SSE 3.5 mph - N/A Rain Light Rain
3:15 AM 33.8 °F 29.6 °F 32.0 °F 93% 29.60 in 2.0 mi SSE 4.6 mph - 0.01 in Snow Light Snow
3:35 AM 33.8 °F 27.7 °F 32.0 °F 93% 29.59 in 5.0 mi SSE 6.9 mph - 0.01 in Rain Light Rain
3:55 AM 33.8 °F 28.6 °F 32.0 °F 93% 29.58 in 5.0 mi SSE 5.8 mph - 0.01 in Rain Light Rain
4:15 AM 33.8 °F 29.6 °F 32.0 °F 93% 29.57 in 7.0 mi SSE 4.6 mph - N/A   Overcast
4:35 AM 33.8 °F 30.8 °F 32.0 °F 93% 29.56 in 7.0 mi SE 3.5 mph - N/A   Overcast
4:55 AM 33.8 °F 28.6 °F 32.0 °F 93% 29.57 in 7.0 mi South 5.8 mph - N/A   Overcast
5:15 AM 33.8 °F 29.6 °F 32.0 °F 93% 29.56 in 7.0 mi South 4.6 mph - N/A   Overcast
5:35 AM 33.8 °F 29.6 °F 32.0 °F 93% 29.56 in 7.0 mi South 4.6 mph - N/A   Overcast
5:55 AM 33.8 °F 29.6 °F 32.0 °F 93% 29.55 in 7.0 mi South 4.6 mph - N/A   Overcast
6:15 AM 33.8 °F 29.6 °F 32.0 °F 93% 29.55 in 7.0 mi South 4.6 mph - N/A   Overcast
6:35 AM 33.8 °F 28.6 °F 32.0 °F 93% 29.55 in 7.0 mi South 5.8 mph - N/A   Overcast
6:55 AM 33.8 °F 30.8 °F 32.0 °F 93% 29.55 in 5.0 mi SSW 3.5 mph - N/A   Overcast
7:15 AM 33.8 °F 30.8 °F 32.0 °F 93% 29.55 in 7.0 mi SSW 3.5 mph - N/A   Overcast
7:35 AM 33.8 °F 29.6 °F 32.0 °F 93% 29.56 in 7.0 mi SW 4.6 mph - N/A   Overcast
7:55 AM 33.8 °F 29.6 °F 32.0 °F 93% 29.56 in 10.0 mi SW 4.6 mph - N/A   Overcast
8:15 AM 35.6 °F 30.7 °F 32.0 °F 87% 29.56 in 10.0 mi WSW 5.8 mph - N/A   Overcast
8:35 AM 35.6 °F 30.7 °F 32.0 °F 87% 29.56 in 10.0 mi WSW 5.8 mph - N/A   Overcast
8:55 AM 35.6 °F 28.6 °F 32.0 °F 87% 29.56 in 10.0 mi WSW 9.2 mph - N/A   Overcast
9:15 AM 33.8 °F 25.8 °F 32.0 °F 93% 29.56 in 4.0 mi West 10.4 mph - N/A Snow Light Snow
9:35 AM 33.8 °F 25.8 °F 32.0 °F 93% 29.57 in 10.0 mi WSW 10.4 mph - N/A Snow Light Snow
9:55 AM 33.8 °F 26.4 °F 32.0 °F 93% 29.57 in 2.5 mi WSW 9.2 mph - N/A Snow Light Snow
10:15 AM 33.8 °F 27.7 °F 32.0 °F 93% 29.58 in 1.2 mi WSW 6.9 mph - 0.02 in Snow Light Snow
10:35 AM 33.8 °F 25.8 °F 32.0 °F 93% 29.58 in 1.0 mi West 10.4 mph - 0.02 in Snow Light Snow
10:55 AM 33.8 °F 24.8 °F 32.0 °F 93% 29.59 in 4.0 mi West 12.7 mph - 0.02 in Snow Light Snow
11:15 AM 33.8 °F 24.8 °F 32.0 °F 93% 29.60 in 5.0 mi West 12.7 mph 17.3 mph N/A Snow Light Snow
11:35 AM 33.8 °F 24.8 °F 32.0 °F 93% 29.60 in 5.0 mi West 12.7 mph 18.4 mph N/A Snow Light Snow
11:55 AM 33.8 °F 23.5 °F 32.0 °F 93% 29.62 in 7.0 mi West 16.1 mph 25.3 mph N/A   Overcast
12:15 PM 32.0 °F 20.8 °F 32.0 °F 100% 29.62 in 2.5 mi WNW 17.3 mph 23.0 mph N/A Snow Light Snow
12:35 PM 32.0 °F 22.1 °F 32.0 °F 100% 29.63 in 2.5 mi NW 13.8 mph 20.7 mph N/A Rain Rain
12:55 PM 32.0 °F 21.6 °F 30.2 °F 93% 29.65 in 10.0 mi NW 15.0 mph 20.7 mph N/A Snow Light Snow
1:15 PM 32.0 °F 20.8 °F 30.2 °F 93% 29.67 in 10.0 mi NW 17.3 mph 27.6 mph N/A Snow Light Snow
1:35 PM 32.0 °F 20.1 °F 28.4 °F 87% 29.68 in 10.0 mi NW 19.6 mph 25.3 mph N/A   Overcast
1:55 PM 32.0 °F 22.1 °F 28.4 °F 87% 29.69 in 10.0 mi WNW 13.8 mph 18.4 mph N/A   Overcast
2:15 PM 32.0 °F 20.8 °F 28.4 °F 87% 29.71 in 10.0 mi WNW 17.3 mph 24.2 mph N/A   Overcast
2:35 PM 32.0 °F 21.6 °F 28.4 °F 87% 29.71 in 10.0 mi NW 15.0 mph - N/A   Overcast
2:55 PM 32.0 °F 21.6 °F 28.4 °F 87% 29.73 in 10.0 mi WNW 15.0 mph 21.9 mph N/A   Overcast
3:15 PM 32.0 °F 21.6 °F 28.4 °F 87% 29.74 in 10.0 mi WNW 15.0 mph 19.6 mph N/A   Overcast
3:35 PM 32.0 °F 22.1 °F 28.4 °F 87% 29.76 in 10.0 mi WNW 13.8 mph - N/A Snow Light Snow
3:55 PM 32.0 °F 23.6 °F 28.4 °F 87% 29.78 in 5.0 mi WNW 10.4 mph - N/A Snow Light Snow
4:15 PM 32.0 °F 22.5 °F 28.4 °F 87% 29.79 in 2.0 mi WNW 12.7 mph 20.7 mph N/A Snow Light Snow
4:35 PM 32.0 °F 24.2 °F 28.4 °F 87% 29.81 in 0.8 mi WNW 9.2 mph - N/A Snow Light Snow
4:55 PM 32.0 °F 24.8 °F 28.4 °F 87% 29.82 in 5.0 mi WNW 8.1 mph - N/A Snow Light Snow
5:15 PM 32.0 °F 24.2 °F 28.4 °F 87% 29.84 in 0.8 mi WNW 9.2 mph - N/A Snow Light Snow
5:35 PM 32.0 °F 24.2 °F 28.4 °F 87% 29.85 in 0.8 mi WNW 9.2 mph - N/A Snow Light Snow
5:55 PM 30.2 °F 21.9 °F 28.4 °F 93% 29.85 in 3.0 mi West 9.2 mph - N/A Snow Light Snow
6:15 PM 32.0 °F 24.8 °F 28.4 °F 87% 29.86 in 4.0 mi West 8.1 mph - N/A Snow Light Snow
6:35 PM 32.0 °F 25.6 °F 28.4 °F 87% 29.87 in 10.0 mi West 6.9 mph - N/A Snow Light Snow
6:55 PM 32.0 °F 24.8 °F 26.6 °F 80% 29.88 in 10.0 mi WNW 8.1 mph - N/A   Overcast
7:15 PM 32.0 °F 23.6 °F 26.6 °F 80% 29.88 in 10.0 mi West 10.4 mph - N/A   Mostly Cloudy
7:35 PM 32.0 °F 24.2 °F 24.8 °F 75% 29.88 in 10.0 mi West 9.2 mph - N/A   Mostly Cloudy
7:55 PM 30.2 °F 21.9 °F 24.8 °F 80% 29.89 in 10.0 mi West 9.2 mph - N/A   Overcast
8:15 PM 30.2 °F 21.9 °F 23.0 °F 75% 29.89 in 10.0 mi West 9.2 mph - N/A   Overcast
8:35 PM 30.2 °F 22.6 °F 23.0 °F 75% 29.90 in 10.0 mi West 8.1 mph - N/A   Overcast
8:55 PM 30.2 °F 21.9 °F 23.0 °F 75% 29.91 in 10.0 mi West 9.2 mph - N/A   Overcast
9:15 PM 30.2 °F 24.3 °F 23.0 °F 75% 29.91 in 10.0 mi WNW 5.8 mph - N/A   Overcast
9:35 PM 30.2 °F 24.3 °F 23.0 °F 75% 29.91 in 10.0 mi NW 5.8 mph - N/A Snow Light Snow
9:55 PM 30.2 °F 24.3 °F 23.0 °F 75% 29.92 in 7.0 mi NW 5.8 mph - N/A Snow Light Snow
10:15 PM 30.2 °F 25.4 °F 24.8 °F 80% 29.93 in 7.0 mi NW 4.6 mph - N/A Snow Light Snow
10:35 PM 28.4 °F 22.2 °F 24.8 °F 86% 29.93 in 5.0 mi NNW 5.8 mph - N/A Snow Light Snow
10:55 PM 28.4 °F 22.2 °F 24.8 °F 86% 29.94 in 4.0 mi NNW 5.8 mph - N/A Snow Light Snow
11:15 PM 28.4 °F 22.2 °F 24.8 °F 86% 29.95 in 2.0 mi NNW 5.8 mph - N/A Snow Light Snow
11:35 PM 28.4 °F 20.4 °F 23.0 °F 80% 29.95 in 2.0 mi NNW 8.1 mph - N/A Snow Light Snow
11:55 PM 26.6 °F 18.2 °F 23.0 °F 86% 29.96 in 2.0 mi NNW 8.1 mph - N/A Snow Light Snow